CW4498 Weather Reports


time (UTC)temp
C
wind
direction
speed
KPH
gust
KPH
rain 1hr
cm
rain 24hr
cm
rain mn
cm
humidity
%
barometer
mb
20260509233001 17 117 0.0 1.6 0.00 0.00 0.00 28 1018.2
20260509231600 17 117 0.0 3.2 0.00 0.00 0.00 28 1018.1
20260509230100 17 61 0.0 8.0 0.00 0.00 0.00 26 1018.0
20260509224604 17 31 0.0 3.2 0.00 0.00 0.00 26 1017.6
20260509223106 17 61 3.2 11.3 0.00 0.00 0.00 26 1017.5
20260509221607 18 59 1.6 9.7 0.00 0.00 0.00 24 1017.6
20260509220100 18 71 1.6 4.8 0.00 0.00 0.00 23 1017.6
20260509214607 20 146 0.0 8.0 0.00 0.00 0.00 23 1017.2
20260509213058 20 66 3.2 9.7 0.00 0.00 0.00 21 1017.5
20260509211600 20 42 1.6 4.8 0.00 0.00 0.00 20 1017.4
20260509210114 19 17 0.0 6.4 0.00 0.00 0.00 22 1017.6
20260509204559 20 27 0.0 6.4 0.00 0.00 0.00 22 1017.5
20260509203056 20 125 0.0 3.2 0.00 0.00 0.00 23 1017.6
20260509201601 20 113 0.0 1.6 0.00 0.00 0.00 23 1017.6
20260509194558 20 273 3.2 11.3 0.00 0.00 0.00 23 1018.2
20260509193053 21 324 1.6 4.8 0.00 0.00 0.00 23 1017.9
20260509191604 21 355 3.2 11.3 0.00 0.00 0.00 20 1018.1
20260509190105 20 327 3.2 9.7 0.00 0.00 0.00 18 1018.2
20260509184551 20 180 8.0 17.7 0.00 0.00 0.00 21 1018.5
20260509183048 19 40 1.6 11.3 0.00 0.00 0.00 20 1018.3
20260509181548 20 265 4.8 16.1 0.00 0.00 0.00 19 1018.6
20260509180052 20 128 0.0 4.8 0.00 0.00 0.00 23 1018.8
20260509174546 19 226 1.6 9.7 0.00 0.00 0.00 20 1019.0
20260509173048 20 112 6.4 12.9 0.00 0.00 0.00 22 1019.0
20260509171547 20 159 3.2 9.7 0.00 0.00 0.00 21 1019.5
20260509170042 20 120 1.6 4.8 0.00 0.00 0.00 21 1019.6
20260509164549 20 133 4.8 12.9 0.00 0.00 0.00 21 1019.8
20260509163039 19 313 1.6 4.8 0.00 0.00 0.00 22 1019.6
20260509161537 18 111 0.0 8.0 0.00 0.00 0.00 25 1019.5
20260509160033 17 19 1.6 11.3 0.00 0.00 0.00 25 1019.7
20260509154529 16 117 1.6 12.9 0.00 0.00 0.00 28 1020.0
20260509153024 14 74 1.6 8.0 0.00 0.00 0.00 32 1020.1
20260509151523 13 318 1.6 6.4 0.00 0.00 0.00 32 1020.3
20260509150032 13 322 6.4 16.1 0.00 0.00 0.00 32 1020.3
20260509144530 13 331 8.0 17.7 0.00 0.00 0.00 32 1020.4
20260509143021 13 281 9.7 24.1 0.00 0.00 0.00 32 1020.4
20260509141522 13 280 8.0 20.9 0.00 0.00 0.00 32 1020.4
20260509140016 13 279 11.3 22.5 0.00 0.00 0.00 32 1020.3
20260509134516 13 290 8.0 19.3 0.00 0.00 0.00 32 1020.1
20260509133015 13 283 6.4 20.9 0.00 0.00 0.00 35 1019.9
20260509131519 13 298 6.4 16.1 0.00 0.00 0.00 35 1019.9
20260509130015 13 286 9.7 30.6 0.00 0.00 0.00 35 1019.8
20260509124509 12 303 1.6 19.3 0.00 0.00 0.00 41 1019.7
20260509123003 8 290 1.6 6.4 0.00 0.00 0.00 57 1019.8
20260509121501 7 86 0.0 4.8 0.00 0.00 0.00 61 1019.6
20260509120001 7 286 0.0 4.8 0.00 0.00 0.00 62 1019.3
20260509114601 7 284 0.0 3.2 0.00 0.00 0.00 64 1019.3
20260509113100 7 284 0.0 3.2 0.00 0.00 0.00 63 1019.1
20260509111558 7 304 0.0 0.0 0.00 0.00 0.00 64 1019.2
20260509110058 7 304 1.6 6.4 0.00 0.00 0.00 63 1019.2
20260509104558 7 303 0.0 3.2 0.00 0.00 0.00 65 1019.4
20260509103059 7 302 0.0 0.0 0.00 0.00 0.00 65 1019.1
20260509101604 7 303 0.0 4.8 0.00 0.00 0.00 63 1019.2
20260509100055 7 304 0.0 1.6 0.00 0.00 0.00 65 1019.3
20260509094552 7 304 0.0 1.6 0.00 0.00 0.00 64 1019.1
20260509093057 8 304 0.0 4.8 0.00 0.00 0.00 62 1019.3
20260509091552 8 304 1.6 4.8 0.00 0.00 0.00 62 1019.4
20260509090046 7 304 0.0 3.2 0.00 0.00 0.00 63 1019.4
20260509084549 7 304 1.6 4.8 0.00 0.00 0.00 63 1019.4
20260509083048 8 304 0.0 4.8 0.00 0.00 0.00 62 1019.4
20260509081548 8 302 0.0 3.2 0.00 0.00 0.00 61 1019.5
20260509080040 8 302 0.0 0.0 0.00 0.00 0.00 59 1019.5
20260509074551 8 303 0.0 0.0 0.00 0.00 0.00 60 1019.7
20260509073037 8 302 0.0 3.2 0.00 0.00 0.00 60 1019.8
20260509071536 8 303 0.0 1.6 0.00 0.00 0.00 60 1020.0
20260509070034 9 304 0.0 1.6 0.00 0.00 0.00 58 1020.3
20260509064540 10 222 0.0 1.6 0.00 0.00 0.00 57 1020.3
20260509063031 10 96 1.6 8.0 0.00 0.00 0.00 55 1020.3
20260509061531 10 125 1.6 11.3 0.00 0.00 0.00 56 1020.2
20260509060030 10 268 1.6 9.7 0.00 0.00 0.00 56 1020.2
20260509054530 10 105 1.6 8.0 0.00 0.00 0.00 57 1020.4
20260509053030 10 234 0.0 6.4 0.00 0.00 0.00 58 1020.5
20260509051534 10 126 0.0 6.4 0.00 0.00 0.00 60 1020.6
20260509050033 10 129 0.0 3.2 0.00 0.00 0.00 59 1020.6
20260509044528 10 130 0.0 4.8 0.00 0.00 0.00 57 1020.7
20260509043028 11 215 1.6 8.0 0.00 0.00 0.00 57 1020.7
20260509041528 11 272 0.0 1.6 0.00 0.00 0.00 57 1020.7
20260509040030 11 229 0.0 0.0 0.00 0.00 0.00 57 1020.7
20260509034540 11 229 0.0 3.2 0.00 0.00 0.00 56 1020.7
20260509033027 11 164 1.6 6.4 0.00 0.00 0.00 55 1020.6
20260509031528 11 128 0.0 6.4 0.00 0.00 0.00 55 1020.2
20260509030026 11 202 0.0 1.6 0.00 0.00 0.00 55 1020.0
20260509024530 12 128 1.6 6.4 0.00 0.00 0.00 55 1020.0
20260509023028 12 117 1.6 6.4 0.00 0.00 0.00 54 1019.9
20260509021524 13 139 0.0 3.2 0.00 0.00 0.00 52 1019.5
20260509020026 13 129 0.0 3.2 0.00 0.00 0.00 50 1019.4
20260509014524 13 145 3.2 12.9 0.00 0.00 0.00 48 1019.3
20260509013024 14 109 1.6 4.8 0.00 0.00 0.00 46 1019.1
20260509011523 14 149 0.0 4.8 0.00 0.00 0.00 46 1018.7
20260509010029 15 136 0.0 3.2 0.00 0.00 0.00 43 1018.5
20260509004532 16 116 3.2 11.3 0.00 0.00 0.00 39 1018.4
20260509003022 17 106 3.2 11.3 0.00 0.00 0.00 37 1018.4
20260509001525 17 107 1.6 9.7 0.00 0.00 0.00 37 1018.3
20260509000021 16 125 1.6 14.5 0.00 0.00 0.00 39 1018.3
20260508234525 17 78 3.2 19.3 0.00 0.00 0.00 37 1018.4